| time (UTC) | temp F | wind direction | speed MPH | gust MPH | rain 1hr in | rain 24hr in | rain mn in | humidity % | barometer mb |
| 20260506050108 | 55 | 136 | 2.0 | 3.0 | 0.00 | 0.00 | 0.00 | 80 | 1015.1 |
| 20260506043110 | 59 | 118 | 2.0 | 2.0 | 0.00 | 0.00 | 0.00 | 74 | 1014.9 |
| 20260506041609 | 59 | 112 | 0.0 | 2.0 | 0.00 | 0.00 | 0.00 | 72 | 1014.9 |
| 20260506040038 | 60 | 105 | 0.0 | 3.0 | 0.00 | 0.00 | 0.00 | 70 | 1014.6 |
| 20260506033109 | 63 | 24 | 1.0 | 3.0 | 0.00 | 0.00 | 0.00 | 65 | 1014.0 |
| 20260506031628 | 65 | 37 | 1.0 | 5.0 | 0.00 | 0.00 | 0.00 | 62 | 1013.9 |
| 20260506030037 | 66 | 16 | 3.0 | 6.0 | 0.00 | 0.00 | 0.00 | 61 | 1013.8 |
| 20260506024535 | 67 | 16 | 5.0 | 8.0 | 0.00 | 0.00 | 0.00 | 59 | 1013.5 |
| 20260506023034 | 69 | 20 | 6.0 | 11.0 | 0.00 | 0.00 | 0.00 | 56 | 1013.4 |
| 20260506021536 | 70 | 17 | 6.0 | 10.0 | 0.00 | 0.00 | 0.00 | 55 | 1013.3 |
| 20260506020035 | 71 | 18 | 7.0 | 11.0 | 0.00 | 0.00 | 0.00 | 54 | 1013.2 |
| 20260506013034 | 74 | 15 | 7.0 | 11.0 | 0.00 | 0.00 | 0.00 | 50 | 1013.0 |
| 20260506010034 | 76 | 316 | 4.0 | 8.0 | 0.00 | 0.00 | 0.00 | 46 | 1012.9 |
| 20260506004536 | 75 | 305 | 5.0 | 12.0 | 0.00 | 0.00 | 0.00 | 47 | 1013.0 |
| 20260506003035 | 76 | 314 | 5.0 | 12.0 | 0.00 | 0.00 | 0.00 | 49 | 1012.9 |
| 20260506001534 | 75 | 6 | 7.0 | 14.0 | 0.00 | 0.00 | 0.00 | 53 | 1012.9 |
| 20260506000036 | 74 | 18 | 7.0 | 14.0 | 0.00 | 0.00 | 0.00 | 52 | 1013.0 |
| 20260505234534 | 74 | 15 | 7.0 | 13.0 | 0.00 | 0.00 | 0.00 | 53 | 1013.1 |
| 20260505233109 | 74 | 15 | 7.0 | 13.0 | 0.00 | 0.00 | 0.00 | 53 | 1013.2 |
| 20260505231536 | 74 | 12 | 7.0 | 12.0 | 0.00 | 0.00 | 0.00 | 53 | 1013.2 |
| 20260505230036 | 74 | 17 | 6.0 | 11.0 | 0.00 | 0.00 | 0.00 | 53 | 1013.3 |
| 20260505223035 | 73 | 21 | 7.0 | 13.0 | 0.00 | 0.00 | 0.00 | 53 | 1013.5 |
| 20260505221536 | 74 | 11 | 7.0 | 11.0 | 0.00 | 0.00 | 0.00 | 53 | 1013.6 |
| 20260505220110 | 74 | 13 | 6.0 | 11.0 | 0.00 | 0.00 | 0.00 | 52 | 1013.7 |
| 20260505214530 | 73 | 18 | 6.0 | 10.0 | 0.00 | 0.00 | 0.00 | 53 | 1013.8 |
| 20260505213151 | 73 | 9 | 6.0 | 11.0 | 0.00 | 0.00 | 0.00 | 53 | 1013.9 |
| 20260505211535 | 73 | 13 | 7.0 | 12.0 | 0.00 | 0.00 | 0.00 | 54 | 1013.9 |
| 20260505210036 | 72 | 11 | 5.0 | 12.0 | 0.00 | 0.00 | 0.00 | 54 | 1014.0 |
| 20260505204531 | 71 | 9 | 6.0 | 10.0 | 0.00 | 0.00 | 0.00 | 55 | 1014.2 |
| 20260505203110 | 71 | 5 | 6.0 | 11.0 | 0.00 | 0.00 | 0.00 | 55 | 1014.3 |
| 20260505201533 | 71 | 11 | 6.0 | 10.0 | 0.00 | 0.00 | 0.00 | 55 | 1014.3 |
| 20260505200143 | 71 | 3 | 6.0 | 12.0 | 0.00 | 0.00 | 0.00 | 53 | 1014.3 |
| 20260505194531 | 71 | 7 | 5.0 | 12.0 | 0.00 | 0.00 | 0.00 | 52 | 1014.4 |
| 20260505193032 | 70 | 11 | 5.0 | 12.0 | 0.00 | 0.00 | 0.00 | 54 | 1014.5 |
| 20260505191536 | 69 | 27 | 4.0 | 10.0 | 0.00 | 0.00 | 0.00 | 55 | 1014.6 |
| 20260505190035 | 69 | 1 | 4.0 | 8.0 | 0.00 | 0.00 | 0.00 | 55 | 1014.6 |
| 20260505184529 | 68 | 2 | 5.0 | 10.0 | 0.00 | 0.00 | 0.00 | 55 | 1014.7 |
| 20260505183033 | 68 | 9 | 5.0 | 10.0 | 0.00 | 0.00 | 0.00 | 55 | 1014.8 |
| 20260505174530 | 66 | 7 | 4.0 | 10.0 | 0.00 | 0.00 | 0.00 | 59 | 1014.6 |
| 20260505173035 | 66 | 4 | 4.0 | 7.0 | 0.00 | 0.00 | 0.00 | 60 | 1014.6 |
| 20260505171535 | 65 | 354 | 3.0 | 7.0 | 0.00 | 0.00 | 0.00 | 61 | 1014.6 |
| 20260505170032 | 64 | 6 | 3.0 | 6.0 | 0.00 | 0.00 | 0.00 | 62 | 1014.6 |
| 20260505164530 | 63 | 3 | 4.0 | 7.0 | 0.00 | 0.00 | 0.00 | 64 | 1014.5 |
| 20260505163034 | 62 | 356 | 4.0 | 8.0 | 0.00 | 0.00 | 0.00 | 67 | 1014.5 |
| 20260505153035 | 57 | 1 | 3.0 | 6.0 | 0.00 | 0.00 | 0.00 | 78 | 1014.5 |
| 20260505150109 | 55 | 25 | 2.0 | 5.0 | 0.00 | 0.00 | 0.00 | 80 | 1014.3 |
| 20260505123109 | 47 | 154 | 3.0 | 5.0 | 0.00 | 0.00 | 0.00 | 90 | 1013.3 |
| 20260505121532 | 48 | 180 | 3.0 | 4.0 | 0.00 | 0.00 | 0.00 | 89 | 1013.3 |
| 20260505120036 | 48 | 181 | 2.0 | 3.0 | 0.00 | 0.00 | 0.00 | 89 | 1013.3 |
| 20260505114535 | 49 | 166 | 2.0 | 4.0 | 0.00 | 0.00 | 0.00 | 89 | 1013.2 |
| 20260505113029 | 49 | 162 | 2.0 | 4.0 | 0.00 | 0.00 | 0.00 | 88 | 1013.2 |
| 20260505111537 | 49 | 157 | 1.0 | 4.0 | 0.00 | 0.00 | 0.00 | 86 | 1013.0 |
| 20260505101536 | 50 | 166 | 3.0 | 4.0 | 0.00 | 0.00 | 0.00 | 84 | 1012.8 |
| 20260505100036 | 51 | 170 | 2.0 | 5.0 | 0.00 | 0.00 | 0.00 | 83 | 1012.8 |
| 20260505094536 | 52 | 169 | 2.0 | 4.0 | 0.00 | 0.00 | 0.00 | 80 | 1012.8 |
| 20260505093037 | 53 | 171 | 1.0 | 5.0 | 0.00 | 0.00 | 0.00 | 78 | 1012.7 |
| 20260505091536 | 54 | 169 | 1.0 | 3.0 | 0.00 | 0.00 | 0.00 | 77 | 1012.6 |
| 20260505090110 | 54 | 196 | 1.0 | 5.0 | 0.00 | 0.00 | 0.00 | 76 | 1012.5 |
| 20260505084536 | 55 | 148 | 1.0 | 6.0 | 0.00 | 0.00 | 0.00 | 75 | 1012.5 |
| 20260505083035 | 55 | 124 | 2.0 | 6.0 | 0.00 | 0.00 | 0.00 | 74 | 1012.5 |
| 20260505081533 | 55 | 134 | 4.0 | 7.0 | 0.00 | 0.00 | 0.00 | 75 | 1012.5 |
| 20260505080036 | 56 | 158 | 2.0 | 5.0 | 0.00 | 0.00 | 0.00 | 76 | 1012.5 |
| 20260505074536 | 56 | 144 | 4.0 | 7.0 | 0.00 | 0.00 | 0.00 | 79 | 1012.5 |
| 20260505073037 | 56 | 157 | 3.0 | 6.0 | 0.00 | 0.00 | 0.00 | 78 | 1012.5 |
| 20260505071608 | 58 | 106 | 3.0 | 5.0 | 0.00 | 0.00 | 0.00 | 75 | 1012.4 |
| 20260505070032 | 59 | 94 | 2.0 | 4.0 | 0.00 | 0.00 | 0.00 | 73 | 1012.4 |
| 20260505064532 | 60 | 122 | 2.0 | 5.0 | 0.00 | 0.00 | 0.00 | 71 | 1012.4 |
| 20260505063034 | 60 | 182 | 1.0 | 6.0 | 0.00 | 0.00 | 0.00 | 70 | 1012.4 |
| 20260505060036 | 62 | 105 | 2.0 | 4.0 | 0.00 | 0.00 | 0.00 | 65 | 1012.4 |
| 20260505054536 | 63 | 92 | 3.0 | 6.0 | 0.00 | 0.00 | 0.00 | 64 | 1012.4 |
| 20260505053031 | 64 | 259 | 4.0 | 12.0 | 0.00 | 0.00 | 0.00 | 63 | 1012.3 |